Погода в Нижней Елюзани

Россия / Пензенская область     53°05′41″N   46°01′04″E
темп.,
°C
ветер,
м/с
пор.,
м/с
влажн.,
%
обл.,
%
осадки,
мм/ч
давл.,
гПа
погр.,
м
8 мая, сб
сб800:00+10сз249998 1.7 1015208
03:00+8ссв359672 1.9 1015267
06:00+9св339763 0.0 1016174
09:00+14ююв247799 0.1 1015903
12:00+16ю456499 0.2 10141422
15:00+17юз3564100 0.3 1013796
18:00+16ю3667100 0.0 1012247
21:00+11ююз3476100 0.0 101359
9 мая, вс
вс900:00+10ююв477395 0.0 1012109
03:00+11ююв51364100 0.0 1011278
06:00+12ююв61467100 0.1 1010368
09:00+17ююв71263100 0.1 1010616
12:00+19ю71159100 0.3 10091293
15:00+19ююз61160100 0.6 10101504
18:00+11зсз81091100 0.5 1013410
21:00+8ссз4890100 0.6 1015361
10 мая, пн
пн1000:00+7с61095100 1.1 1015356
03:00+7с51094100 1.4 1017383
06:00+7ссв51194100 0.8 1019401
09:00+8ссв81391100 1.4 1019419
12:00+13ссв81177100 0.0 1020696
15:00+14ссв81176100 0.0 1020669
18:00+12ссв81581100 0.0 1021545
21:00+10св7158498 0.0 1023560
11 мая, вт
вт1100:00+10св61189100 0.3 1024350
03:00+10св71790100 0.8 1023454
06:00+11всв61688100 0.0 1024419
09:00+17всв7107191 0.0 1024505
12:00+20в795975 0.0 10241155
15:00+21всв8116267 1.3 10241812
18:00+19всв7136878 0.4 1025529
21:00+16всв61578100 0.6 1025425
12 мая, ср
ср1200:00+14всв61483100 0.0 1025339
03:00+13в3788100 0.0 1025156
06:00+15в5137789 0.0 1025423
09:00+18в7126266 0.0 1025910
12:00+22вюв8104833 0.0 10241603
15:00+19юв61260100 0.0 1024514
18:00+18вюв41065100 0.0 1024334
21:00+15всв497296 0.0 1023151